User: anonymous   Login
Location: Fort Wayne
(41.1310°N, 85.1290°W)
Time: 06:11:10
(UTC-05:00)
Language:

Cosmos 2219 Rocket - Orbit

View from above orbital plane
View from above orbital plane
View from above satellite
View from above satellite

Ground track
Ground track

The orbit data is extracted from the following two-line orbital elements,

1 22220U 92076B   17023.43001911  .00000176  00000-0  11240-3 0  9999
2 22220  71.0009   3.9530 0011301 142.1200  25.5004 14.16410413250270
Epoch (UTC): 23 January 2017 10:19:13
Eccentricity: 0.0011301
inclination: 71.0009°
perigee height: 829 km
apogee height: 845 km
right ascension of ascending node: 3.9530°
argument of perigee: 142.1200°
revolutions per day: 14.16410413
mean anomaly at epoch: 25.5004°
orbit number at epoch: 25027

The dashed part of the orbit path shows where the satellite is in the earth's shadow,  

DLR